#timestamp,LO_Frequency,Hit,StdDev 
1548421215.3,286047000.5,N
1548421235.2,286047000.0,N
1548421255.0,286047001.9,N
1548421255.9,286047001.9,N
1548421275.8,286047001.9,N
1548421295.6,286047002.0,N
1548421315.4,286047000.0,N
1548421335.3,286047000.3,N
1548421355.1,286047000.0,N
1548421375.8,286047000.7,N
1548421395.7,286047001.1,N
1548421415.5,286046998.5,N
1548421435.4,286046997.0,N
1548421455.2,286046999.0,N
1548421475.0,286046999.5,N
1548421475.9,286046999.5,N
1548421495.8,286046998.1,N
1548421515.6,286047000.0,N
1548421535.5,286047000.0,N
1548421555.4,286047000.5,N
1548421575.2,286047002.8,N
1548421595.1,286047001.6,N
1548421596.0,286047001.6,N
1548421615.8,286047001.4,N
1548421635.6,286047002.6,N
1548421655.5,286047002.6,N
1548421675.3,286047002.3,N
1548421695.2,286047002.8,N
1548421715.0,286047002.0,N
1548421715.9,286047002.0,N
1548421735.7,286047001.6,N
1548421755.6,286047001.9,N
1548421775.4,286047000.4,N
1548421795.3,286047000.6,N
1548421815.1,286047000.6,N
1548421816.0,286047000.6,N
1548421835.8,286047000.4,N
1548421855.7,286047000.8,N
1548421875.5,286046998.4,N
1548421895.3,286047000.5,N
1548421915.2,286047000.1,N
1548421935.0,286047002.2,N
1548421935.9,286047002.2,N
1548421955.8,286047001.6,N
1548421975.6,286047002.2,N
1548421995.4,286047002.7,N
1548422015.3,286047002.1,N
1548422035.1,286047000.1,N
1548422055.9,286047000.2,N
1548422075.7,286047002.3,N
1548422095.5,286047004.4,Y
1548422115.4,286047002.8,P
1548422135.2,286047002.7,P
1548422155.0,286046999.9,N
1548422155.9,286046999.9,N
1548422175.8,286047000.3,N
1548422195.6,286047001.1,N
1548422215.5,286046998.8,N
1548422235.3,286047001.1,N
1548422255.1,286047000.0,N
1548422275.9,286047000.4,N
1548422295.7,286047000.9,N
1548422315.5,286046998.2,N
1548422335.4,286046998.8,N
1548422355.2,286046997.2,N
1548422375.1,286046998.8,N
1548422376.0,286046998.8,N
1548422395.8,286047000.1,N
1548422415.9,286047000.2,N
1548422435.7,286047000.0,N
1548422455.5,286047000.7,N
1548422475.4,286047000.8,N
1548422495.2,286046999.9,N
1548422515.1,286047001.2,N
1548422516.0,286047001.2,N
1548422535.8,286046998.5,N
1548422555.6,286046997.8,N
1548422575.5,286046998.8,N
1548422595.3,286046998.3,N
1548422615.1,286046997.3,N
1548422635.9,286046997.0,N
1548422655.7,286046998.6,N
1548422675.6,286047001.1,N
1548422695.4,286046998.6,N
1548422715.2,286046999.1,N
1548422735.1,286046998.5,N
1548422736.0,286046998.5,N
1548422755.8,286047001.1,N
1548422775.7,286046998.8,N
1548422795.5,286046999.2,N
1548422815.3,286046999.4,N
1548422835.2,286046999.0,N
1548422855.0,286046999.0,N
1548422855.9,286046999.0,N
1548422875.8,286046998.7,N
1548422895.6,286046998.6,N
1548422915.4,286046998.1,N
1548422935.3,286047000.3,N
1548422955.1,286047000.0,N
1548422975.9,286046999.7,N
1548422995.7,286047002.5,N
1548423015.5,286046999.8,N
1548423035.4,286047002.4,N
1548423055.2,286047002.4,N
1548423075.0,286047004.3,Y
1548423076.0,286047004.3,P
1548423095.8,286047002.2,N
1548423115.6,286047002.2,N
1548423135.5,286047002.6,N
1548423155.3,286047000.0,N
1548423175.1,286047000.0,N
1548423195.9,286047002.5,N
1548423215.7,286047002.4,N
1548423235.6,286047000.2,N
1548423255.4,286046999.9,N
1548423275.2,286046999.9,N
1548423295.1,286047000.0,N
1548423296.0,286047000.0,N
1548423315.8,286046999.9,N
1548423335.7,286047000.9,N
1548423355.5,286047000.5,N
1548423375.3,286047002.6,N
1548423395.2,286047002.1,N
1548423415.9,286047004.1,N
1548423435.7,286047003.7,N
1548423455.6,286047004.3,N
1548423475.4,286047001.8,N
1548423495.2,286047001.3,N
1548423515.1,286047001.3,N
1548423516.0,286047001.3,N
1548423535.8,286047003.0,N
1548423555.7,286047003.1,N
1548423575.5,286047004.1,N
1548423595.3,286047003.2,N
1548423615.2,286047004.3,N
1548423635.0,286047004.0,N
1548423635.9,286047004.0,N
1548423655.8,286047001.8,N
1548423675.6,286047002.9,N
1548423695.4,286047003.9,N
1548423715.3,286047001.7,N
1548423735.1,286047003.5,N
1548423755.8,286047003.3,N
1548423775.7,286047004.0,N
1548423795.5,286047003.8,N
1548423815.4,286047003.4,N
1548423835.4,286047004.9,Y
1548423855.2,286047002.3,P
1548423875.1,286047000.1,N
1548423876.0,286047000.1,N
1548423895.8,286046999.0,N
1548423915.6,286047000.9,N
1548423935.5,286047000.6,N
1548423955.3,286047002.7,N
1548423975.2,286047000.6,N
1548423995.9,286047001.2,N
1548424015.7,286046998.6,N
1548424035.6,286046998.7,N
1548424055.4,286046998.6,N
1548424075.2,286046998.6,N
1548424095.3,286046999.5,N
1548424115.0,286046999.0,N
1548424116.0,286046999.0,N
1548424135.8,286046997.8,N
1548424155.4,286046997.9,N
1548424175.2,286046999.4,N
1548424195.0,286046996.7,N
1548424195.9,286046996.7,N
1548424215.8,286046999.4,N
1548424235.6,286046999.2,N
1548424255.5,286046999.4,N
1548424275.3,286047000.6,N
1548424295.1,286047002.2,N
1548424315.9,286046998.7,N
1548424335.7,286047000.9,N
1548424355.5,286047000.3,N
1548424375.4,286047000.9,N
1548424395.2,286046998.7,N
1548424415.1,286046998.5,N
1548424416.0,286046998.5,N
1548424435.8,286047000.7,N
1548424455.6,286047000.9,N
1548424475.5,286046999.1,N
1548424495.3,286046999.4,N
1548424515.2,286046999.3,N
1548424535.9,286046996.5,N
1548424555.7,286046999.5,N
1548424575.9,286046999.3,N
1548424595.7,286046998.7,N
1548424615.5,286046998.5,N
1548424635.4,286047001.1,N
1548424655.2,286047001.0,N
1548424675.0,286047000.3,N
1548424675.9,286047000.3,N
1548424695.8,286047000.1,N
1548424715.6,286047002.7,N
1548424735.5,286047000.9,N
1548424755.3,286047001.2,N
1548424775.1,286047002.1,N
1548424795.9,286047004.1,Y
